| time (UTC) | temp C | wind direction | speed KPH | gust KPH | rain 1hr cm | rain 24hr cm | rain mn cm | humidity % | barometer mb |
| 20260507180031 | 15 | 201 | 0.0 | 4.8 | 0.00 | 0.00 | 0.00 | 42 | 1014.4 |
| 20260507174533 | 15 | 202 | 0.0 | 12.9 | 0.00 | 0.00 | 0.00 | 39 | 1014.5 |
| 20260507173031 | 15 | 202 | 1.6 | 4.8 | 0.00 | 0.00 | 0.00 | 41 | 1014.7 |
| 20260507171529 | 15 | 202 | 0.0 | 11.3 | 0.00 | 0.00 | 0.00 | 40 | 1014.9 |
| 20260507170026 | 15 | 201 | 0.0 | 14.5 | 0.00 | 0.00 | 0.00 | 40 | 1015.2 |
| 20260507164522 | 14 | 201 | 0.0 | 8.0 | 0.00 | 0.00 | 0.00 | 45 | 1015.2 |
| 20260507163021 | 13 | 201 | 1.6 | 8.0 | 0.00 | 0.00 | 0.00 | 39 | 1015.4 |
| 20260507161520 | 14 | 202 | 1.6 | 6.4 | 0.00 | 0.00 | 0.00 | 39 | 1015.5 |
| 20260507160027 | 13 | 202 | 1.6 | 4.8 | 0.00 | 0.00 | 0.00 | 43 | 1015.6 |
| 20260507154518 | 13 | 202 | 1.6 | 4.8 | 0.00 | 0.00 | 0.00 | 47 | 1015.4 |
| 20260507153014 | 13 | 201 | 0.0 | 8.0 | 0.00 | 0.00 | 0.00 | 47 | 1015.4 |
| 20260507151510 | 13 | 201 | 0.0 | 6.4 | 0.00 | 0.00 | 0.00 | 49 | 1015.4 |
| 20260507150009 | 12 | 201 | 0.0 | 6.4 | 0.00 | 0.00 | 0.00 | 51 | 1015.4 |
| 20260507144509 | 12 | 202 | 3.2 | 11.3 | 0.00 | 0.00 | 0.00 | 50 | 1015.5 |
| 20260507143002 | 12 | 201 | 1.6 | 11.3 | 0.00 | 0.00 | 0.00 | 55 | 1015.4 |
| 20260507141623 | 12 | 201 | 0.0 | 6.4 | 0.00 | 0.00 | 0.00 | 54 | 1015.6 |
| 20260507140056 | 11 | 202 | 0.0 | 11.3 | 0.00 | 0.00 | 0.00 | 53 | 1015.6 |
| 20260507134555 | 11 | 201 | 3.2 | 12.9 | 0.00 | 0.00 | 0.00 | 52 | 1015.5 |
| 20260507133054 | 11 | 202 | 1.6 | 9.7 | 0.00 | 0.00 | 0.00 | 58 | 1015.4 |
| 20260507131602 | 10 | 202 | 1.6 | 8.0 | 0.00 | 0.00 | 0.00 | 63 | 1015.6 |
| 20260507130046 | 10 | 201 | 0.0 | 1.6 | 0.00 | 0.00 | 0.00 | 71 | 1015.4 |
| 20260507124541 | 9 | 201 | 0.0 | 6.4 | 0.00 | 0.00 | 0.00 | 72 | 1015.4 |
| 20260507123042 | 8 | 201 | 0.0 | 3.2 | 0.00 | 0.00 | 0.00 | 78 | 1015.7 |
| 20260507121542 | 8 | 201 | 0.0 | 4.8 | 0.00 | 0.00 | 0.00 | 86 | 1015.8 |
| 20260507120034 | 8 | 201 | 0.0 | 3.2 | 0.00 | 0.00 | 0.00 | 89 | 1015.8 |
| 20260507114531 | 7 | 201 | 0.0 | 0.0 | 0.00 | 0.00 | 0.00 | 94 | 1015.7 |
| 20260507113025 | 6 | 201 | 0.0 | 0.0 | 0.00 | 0.00 | 0.00 | 95 | 1015.7 |
| 20260507111523 | 4 | 201 | 0.0 | 0.0 | 0.00 | 0.00 | 0.00 | 97 | 1015.4 |
| 20260507110022 | 3 | 201 | 0.0 | 0.0 | 0.00 | 0.00 | 0.00 | 96 | 1015.2 |
| 20260507104518 | 2 | 201 | 0.0 | 0.0 | 0.00 | 0.00 | 0.00 | 96 | 1014.9 |
| 20260507103016 | 3 | 201 | 0.0 | 0.0 | 0.00 | 0.00 | 0.00 | 96 | 1014.8 |
| 20260507101516 | 3 | 201 | 0.0 | 0.0 | 0.00 | 0.00 | 0.00 | 96 | 1014.8 |
| 20260507100013 | 3 | 201 | 0.0 | 0.0 | 0.00 | 0.00 | 0.00 | 96 | 1014.8 |
| 20260507094512 | 3 | 201 | 0.0 | 0.0 | 0.00 | 0.00 | 0.00 | 96 | 1014.9 |
| 20260507093009 | 3 | 201 | 0.0 | 0.0 | 0.00 | 0.00 | 0.00 | 95 | 1014.9 |
| 20260507091508 | 3 | 201 | 0.0 | 0.0 | 0.00 | 0.00 | 0.00 | 95 | 1014.7 |
| 20260507090004 | 4 | 201 | 0.0 | 0.0 | 0.00 | 0.00 | 0.00 | 95 | 1014.5 |
| 20260507084602 | 4 | 201 | 0.0 | 0.0 | 0.00 | 0.08 | 0.00 | 95 | 1014.4 |
| 20260507083059 | 4 | 201 | 0.0 | 0.0 | 0.00 | 0.08 | 0.00 | 95 | 1014.3 |
| 20260507081559 | 5 | 201 | 0.0 | 0.0 | 0.00 | 0.08 | 0.00 | 95 | 1014.3 |
| 20260507080107 | 5 | 201 | 0.0 | 0.0 | 0.00 | 0.08 | 0.00 | 95 | 1014.3 |
| 20260507074556 | 5 | 201 | 0.0 | 0.0 | 0.00 | 0.28 | 0.00 | 94 | 1014.2 |
| 20260507073052 | 5 | 201 | 0.0 | 0.0 | 0.00 | 0.28 | 0.00 | 94 | 1014.2 |
| 20260507071551 | 6 | 201 | 0.0 | 0.0 | 0.00 | 0.28 | 0.00 | 94 | 1014.1 |
| 20260507070058 | 6 | 202 | 0.0 | 0.0 | 0.00 | 0.28 | 0.00 | 95 | 1014.1 |
| 20260507064619 | 5 | 201 | 0.0 | 0.0 | 0.00 | 0.58 | 0.00 | 94 | 1014.2 |
| 20260507063052 | 5 | 201 | 0.0 | 0.0 | 0.00 | 0.58 | 0.00 | 94 | 1014.3 |
| 20260507061546 | 5 | 202 | 0.0 | 0.0 | 0.00 | 0.58 | 0.00 | 93 | 1014.4 |
| 20260507060109 | 6 | 201 | 0.0 | 0.0 | 0.00 | 0.58 | 0.00 | 93 | 1014.3 |
| 20260507054547 | 6 | 202 | 0.0 | 0.0 | 0.00 | 0.79 | 0.00 | 92 | 1014.4 |
| 20260507053041 | 6 | 201 | 0.0 | 0.0 | 0.00 | 0.79 | 0.00 | 92 | 1014.4 |
| 20260507051551 | 6 | 201 | 0.0 | 0.0 | 0.00 | 0.79 | 0.00 | 92 | 1014.4 |
| 20260507050045 | 6 | 201 | 0.0 | 0.0 | 0.00 | 0.79 | 0.00 | 92 | 1014.4 |
| 20260507044537 | 6 | 201 | 0.0 | 0.0 | 0.00 | 1.30 | 0.00 | 91 | 1014.4 |
| 20260507043035 | 6 | 201 | 0.0 | 0.0 | 0.00 | 1.30 | 0.00 | 90 | 1014.4 |
| 20260507041532 | 6 | 202 | 0.0 | 0.0 | 0.00 | 1.30 | 0.00 | 89 | 1014.7 |
| 20260507040030 | 7 | 202 | 0.0 | 0.0 | 0.00 | 1.30 | 0.00 | 89 | 1014.6 |
| 20260507034530 | 7 | 201 | 0.0 | 0.0 | 0.00 | 1.32 | 1.30 | 87 | 1014.4 |
| 20260507033028 | 7 | 201 | 0.0 | 0.0 | 0.00 | 1.32 | 1.30 | 86 | 1014.4 |
| 20260507031527 | 7 | 202 | 0.0 | 0.0 | 0.00 | 1.32 | 1.30 | 85 | 1014.3 |
| 20260507030029 | 8 | 202 | 0.0 | 0.0 | 0.00 | 1.32 | 1.30 | 84 | 1014.4 |
| 20260507024527 | 8 | 202 | 0.0 | 0.0 | 0.00 | 1.32 | 1.30 | 83 | 1014.3 |
| 20260507023023 | 9 | 202 | 0.0 | 0.0 | 0.00 | 1.32 | 1.30 | 83 | 1014.2 |
| 20260507021522 | 10 | 202 | 0.0 | 0.0 | 0.00 | 1.32 | 1.30 | 81 | 1014.0 |
| 20260507020022 | 10 | 201 | 0.0 | 0.0 | 0.00 | 1.32 | 1.30 | 79 | 1013.9 |
| 20260507014519 | 10 | 202 | 0.0 | 0.0 | 0.00 | 1.35 | 1.30 | 80 | 1013.7 |
| 20260507013017 | 10 | 202 | 0.0 | 0.0 | 0.00 | 1.35 | 1.30 | 77 | 1013.7 |
| 20260507011517 | 11 | 201 | 0.0 | 0.0 | 0.00 | 1.35 | 1.30 | 76 | 1013.6 |
| 20260507010020 | 11 | 201 | 0.0 | 0.0 | 0.00 | 1.35 | 1.30 | 75 | 1013.5 |
| 20260507004518 | 12 | 201 | 0.0 | 0.0 | 0.00 | 1.35 | 1.30 | 72 | 1013.2 |
| 20260507003013 | 12 | 201 | 0.0 | 0.0 | 0.00 | 1.35 | 1.30 | 71 | 1013.3 |
| 20260507001515 | 12 | 201 | 0.0 | 0.0 | 0.00 | 1.35 | 1.30 | 71 | 1013.1 |
| 20260507000010 | 12 | 201 | 0.0 | 0.0 | 0.00 | 1.35 | 1.30 | 68 | 1012.9 |
| 20260506234510 | 13 | 202 | 0.0 | 0.0 | 0.00 | 1.50 | 1.30 | 69 | 1013.0 |
| 20260506233012 | 13 | 201 | 0.0 | 1.6 | 0.00 | 1.50 | 1.30 | 64 | 1012.9 |
| 20260506231506 | 13 | 201 | 0.0 | 4.8 | 0.00 | 1.50 | 1.30 | 62 | 1012.5 |
| 20260506230017 | 13 | 201 | 0.0 | 6.4 | 0.00 | 1.50 | 1.30 | 60 | 1012.3 |
| 20260506224505 | 14 | 201 | 0.0 | 6.4 | 0.00 | 1.50 | 1.30 | 59 | 1012.1 |
| 20260506223004 | 15 | 201 | 0.0 | 9.7 | 0.00 | 1.50 | 1.30 | 60 | 1012.1 |
| 20260506221503 | 15 | 201 | 0.0 | 3.2 | 0.00 | 1.50 | 1.30 | 59 | 1012.2 |
| 20260506220005 | 15 | 201 | 0.0 | 3.2 | 0.00 | 1.50 | 1.30 | 59 | 1012.1 |
| 20260506214502 | 15 | 201 | 0.0 | 4.8 | 0.00 | 1.57 | 1.30 | 57 | 1012.3 |
| 20260506213002 | 16 | 201 | 0.0 | 3.2 | 0.00 | 1.57 | 1.30 | 53 | 1012.6 |
| 20260506211501 | 16 | 201 | 0.0 | 1.6 | 0.00 | 1.57 | 1.30 | 56 | 1012.2 |
| 20260506210106 | 16 | 201 | 0.0 | 6.4 | 0.00 | 1.57 | 1.30 | 54 | 1012.5 |
| 20260506204607 | 16 | 201 | 0.0 | 9.7 | 0.00 | 2.01 | 1.30 | 52 | 1012.2 |
| 20260506203058 | 15 | 201 | 0.0 | 4.8 | 0.00 | 2.01 | 1.30 | 57 | 1012.2 |
| 20260506201556 | 16 | 202 | 0.0 | 6.4 | 0.00 | 2.01 | 1.30 | 58 | 1012.3 |
| 20260506200056 | 16 | 202 | 0.0 | 4.8 | 0.00 | 2.01 | 1.30 | 55 | 1012.3 |
| 20260506194554 | 16 | 201 | 1.6 | 9.7 | 0.00 | 2.21 | 1.30 | 54 | 1012.2 |
| 20260506193052 | 16 | 202 | 0.0 | 4.8 | 0.00 | 2.21 | 1.30 | 55 | 1012.5 |
| 20260506191552 | 16 | 202 | 0.0 | 4.8 | 0.00 | 2.21 | 1.30 | 58 | 1012.5 |
| 20260506190050 | 16 | 201 | 0.0 | 8.0 | 0.00 | 2.21 | 1.30 | 59 | 1012.2 |
| 20260506184559 | 16 | 202 | 0.0 | 8.0 | 0.00 | 2.21 | 1.30 | 58 | 1012.2 |
| 20260506183046 | 15 | 201 | 3.2 | 11.3 | 0.00 | 2.21 | 1.30 | 60 | 1012.0 |
| 20260506181544 | 15 | 201 | 1.6 | 12.9 | 0.00 | 2.21 | 1.30 | 60 | 1011.8 |